Location: *
(51.8167°N, 12.5000°E)
Time: 11:58:25
(UTC+00:00)

Cosmos 962 Rocket - Pass Details

Date: 16 September 2019
Orbit: 951 x 999 km, 82.9° (Epoch: 17 October)

Event Time Altitude Azimuth Distance (km) Brightness Sun altitude
Rises 18:40:17 0° 350° (N) 3,686 8.0 -12.4°
Reaches altitude 10° 18:42:49 10° 353° (N) 2,741 7.2 -12.8°
Maximum altitude 18:49:06 71° 78° (ENE) 1,041 4.5 -13.7°
Drops below altitude 10° 18:55:25 10° 162° (SSE) 2,752 6.5 -14.6°
Enters shadow 18:56:36 - 164° (SSE) 3,195 6.8 -14.8°
